FLOCK 4V-15

Last updated on Thu Oct 29 2020 00:02:02 GMT+0000 (Coordinated Universal Time)

1 46528U 20061BE 20302.13662430 .00000826 00000-0 46313-4 0 9993 2 46528 97.4622 14.2911 0004600 78.2302 281.9446 15.16079726 4706
UTC large
Height (km)
Speed (km/s)
/
Latitude / Longitude
Inclination (degrees)
Orbital Period (minutes)
Azimuth
Elevation
Range (km)
Doppler Factor

Next 0 passes for location: London (51.5072 / 0.1276)

Sorry there are no passes over London.